,,Stat6,,Stat2,,Stat8,,Stat9,,Stat10,,Wind1,,Wind1,
time,status,PA1M_AVG,status,PR1M_SUM,status,RH1M_AVG,status,SR1M_AVG,status,TA1M_AVG,status,W1dAve1m,status,W1sAve1m,
2008-03-08, 00:00:00,VALID,918.114,VALID,0,VALID,100,VALID,-0.0339617,VALID,20.679,VALID,104,VALID,0,
2008-03-08, 00:01:00,VALID,918.117,VALID,0,VALID,100,VALID,-0.0339617,VALID,20.6363,VALID,104,VALID,0,
2008-03-08, 00:02:00,VALID,918.112,VALID,0,VALID,100,VALID,-0.0679233,VALID,20.6404,VALID,104,VALID,0,
2008-03-08, 00:03:00,VALID,918.104,VALID,0,VALID,100,VALID,-0.0509425,VALID,20.6401,VALID,104,VALID,0,
2008-03-08, 00:04:00,VALID,918.105,VALID,0,VALID,100,VALID,-0.0169808,VALID,20.6363,VALID,104,VALID,0,
2008-03-08, 00:05:00,VALID,918.102,VALID,0,VALID,100,VALID,-0.0169808,VALID,20.6306,VALID,104,VALID,0,
2008-03-08, 00:06:00,VALID,918.083,VALID,0,VALID,100,VALID,-0.0679233,VALID,20.6236,VALID,104,VALID,0,
2008-03-08, 00:07:00,VALID,918.084,VALID,0,VALID,100,VALID,0,VALID,20.6139,VALID,104,VALID,0,
2008-03-08, 00:08:00,VALID,918.072,VALID,0,VALID,100,VALID,-0.0169808,VALID,20.6171,VALID,104,VALID,0,
2008-03-08, 00:09:00,VALID,918.076,VALID,0.2,VALID,100,VALID,-0.0509425,VALID,20.6141,VALID,104,VALID,0,
2008-03-08, 00:10:00,VALID,918.062,VALID,0,VALID,100,VALID,-0.0509425,VALID,20.6017,VALID,104,VALID,0,
2008-03-08, 00:11:00,VALID,918.055,VALID,0,VALID,100,VALID,-0.0339617,VALID,20.5982,VALID,104,VALID,0,
2008-03-08, 00:12:00,VALID,918.054,VALID,0,VALID,100,VALID,-0.0169808,VALID,20.6136,VALID,104,VALID,0,
2008-03-08, 00:13:00,VALID,918.04,VALID,0,VALID,100,VALID,0,VALID,20.6009,VALID,104,VALID,0,
2008-03-08, 00:14:00,VALID,918.055,VALID,0,VALID,100,VALID,0,VALID,20.5882,VALID,104,VALID,0,
2008-03-08, 00:15:00,VALID,918.041,VALID,0,VALID,100,VALID,-0.0169808,VALID,20.5682,VALID,104,VALID,0.0602679,
2008-03-08, 00:16:00,VALID,918.041,VALID,0,VALID,100,VALID,-0.0169808,VALID,20.5617,VALID,117,VALID,0.387195,
2008-03-08, 00:17:00,VALID,918.031,VALID,0,VALID,100,VALID,-0.0169808,VALID,20.542,VALID,125,VALID,0.0589844,
2008-03-08, 00:18:00,VALID,918.029,VALID,0,VALID,100,VALID,-0.0169808,VALID,20.5352,VALID,124,VALID,0,
2008-03-08, 00:19:00,VALID,918.002,VALID,0,VALID,100,VALID,-0.0169808,VALID,20.5385,VALID,125,VALID,0,
2008-03-08, 00:20:00,VALID,917.995,VALID,0,VALID,100,VALID,0,VALID,20.5487,VALID,125,VALID,0,
2008-03-08, 00:21:00,VALID,917.981,VALID,0,VALID,100,VALID,-0.0339617,VALID,20.5427,VALID,126,VALID,0.140224,
2008-03-08, 00:22:00,VALID,917.949,VALID,0.2,VALID,100,VALID,-0.0169808,VALID,20.5362,VALID,137,VALID,0.552083,
2008-03-08, 00:23:00,VALID,917.921,VALID,0,VALID,100,VALID,-0.0169808,VALID,20.5292,VALID,149,VALID,0.625545,
2008-03-08, 00:24:00,VALID,917.899,VALID,0,VALID,100,VALID,-0.0509425,VALID,20.5263,VALID,152,VALID,0.75,
2008-03-08, 00:25:00,VALID,917.886,VALID,0,VALID,100,VALID,-0.0339617,VALID,20.5263,VALID,152,VALID,0.606597,
2008-03-08, 00:26:00,VALID,917.86,VALID,0,VALID,100,VALID,-0.0339617,VALID,20.533,VALID,148,VALID,0.504954,
2008-03-08, 00:27:00,VALID,917.847,VALID,0,VALID,100,VALID,-0.0169808,VALID,20.5298,VALID,142,VALID,0.798781,
2008-03-08, 00:28:00,VALID,917.823,VALID,0,VALID,100,VALID,-0.0509425,VALID,20.517,VALID,141,VALID,0.928757,
2008-03-08, 00:29:00,VALID,917.793,VALID,0,VALID,100,VALID,-0.0679233,VALID,20.517,VALID,129,VALID,0.676121,
2008-03-08, 00:30:00,VALID,917.766,VALID,0,VALID,100,VALID,-0.0169808,VALID,20.5263,VALID,129,VALID,0.518169,
2008-03-08, 00:31:00,VALID,917.731,VALID,0,VALID,100,VALID,-0.0169808,VALID,20.5198,VALID,138,VALID,1.01581,
2008-03-08, 00:32:00,VALID,917.7,VALID,0,VALID,100,VALID,-0.0169808,VALID,20.4995,VALID,131,VALID,0.748365,
2008-03-08, 00:33:00,VALID,917.667,VALID,0.2,VALID,100,VALID,-0.0339617,VALID,20.5003,VALID,133,VALID,0.625,
2008-03-08, 00:34:00,VALID,917.652,VALID,0,VALID,100,VALID,-0.0169808,VALID,20.4906,VALID,136,VALID,0.814317,
2008-03-08, 00:35:00,VALID,917.62,VALID,0,VALID,100,VALID,-0.0339617,VALID,20.4871,VALID,138,VALID,0.794141,
2008-03-08, 00:36:00,VALID,917.592,VALID,0,VALID,100,VALID,-0.0339617,VALID,20.4741,VALID,145,VALID,0.538872,
2008-03-08, 00:37:00,VALID,917.575,VALID,0,VALID,100,VALID,-0.0339617,VALID,20.4678,VALID,152,VALID,0.751562,
2008-03-08, 00:38:00,VALID,917.564,VALID,0,VALID,100,VALID,-0.0169808,VALID,20.4941,VALID,156,VALID,0.524368,
2008-03-08, 00:39:00,VALID,917.542,VALID,0,VALID,100,VALID,-0.0509425,VALID,20.4838,VALID,157,VALID,1.06392,
2008-03-08, 00:40:00,VALID,917.53,VALID,0,VALID,100,VALID,-0.0509425,VALID,20.4746,VALID,154,VALID,0.890807,
2008-03-08, 00:41:00,VALID,917.524,VALID,0,VALID,100,VALID,-0.0509425,VALID,20.4811,VALID,157,VALID,1.0342,
2008-03-08, 00:42:00,VALID,917.505,VALID,0,VALID,100,VALID,0,VALID,20.4876,VALID,154,VALID,0.460392,
2008-03-08, 00:43:00,VALID,917.506,VALID,0,VALID,100,VALID,-0.0509425,VALID,20.4938,VALID,165,VALID,0.841933,
2008-03-08, 00:44:00,VALID,917.48,VALID,0,VALID,100,VALID,-0.0509425,VALID,20.4871,VALID,161,VALID,0.746299,
2008-03-08, 00:45:00,VALID,917.454,VALID,0,VALID,100,VALID,-0.0339617,VALID,20.5103,VALID,158,VALID,0.6875,
2008-03-08, 00:46:00,VALID,917.428,VALID,0.2,VALID,100,VALID,-0.0339617,VALID,20.497,VALID,151,VALID,0.638158,
2008-03-08, 00:47:00,VALID,917.408,VALID,0,VALID,100,VALID,-0.0509425,VALID,20.4938,VALID,158,VALID,0.64008,
2008-03-08, 00:48:00,VALID,917.375,VALID,0,VALID,100,VALID,-0.0169808,VALID,20.4838,VALID,160,VALID,1.03925,
2008-03-08, 00:49:00,VALID,917.344,VALID,0,VALID,100,VALID,-0.0169808,VALID,20.4643,VALID,154,VALID,0.598323,
2008-03-08, 00:50:00,VALID,917.335,VALID,0,VALID,100,VALID,-0.0339617,VALID,20.4414,VALID,162,VALID,1.15134,
2008-03-08, 00:51:00,VALID,917.307,VALID,0,VALID,100,VALID,-0.0679233,VALID,20.4224,VALID,145,VALID,0.71189,
2008-03-08, 00:52:00,VALID,917.279,VALID,0,VALID,100,VALID,-0.0509425,VALID,20.4127,VALID,159,VALID,1.4556,
2008-03-08, 00:53:00,VALID,917.256,VALID,0,VALID,100,VALID,-0.0169808,VALID,20.3897,VALID,168,VALID,1.02325,
2008-03-08, 00:54:00,VALID,917.23,VALID,0,VALID,100,VALID,-0.0169808,VALID,20.387,VALID,160,VALID,1.10174,
2008-03-08, 00:55:00,VALID,917.215,VALID,0,VALID,100,VALID,-0.0509425,VALID,20.3702,VALID,161,VALID,1.40677,
2008-03-08, 00:56:00,VALID,917.192,VALID,0,VALID,100,VALID,-0.0509425,VALID,20.3705,VALID,158,VALID,0.6625,
2008-03-08, 00:57:00,VALID,917.166,VALID,0,VALID,100,VALID,-0.0509425,VALID,20.3737,VALID,166,VALID,1.18806,
2008-03-08, 00:58:00,VALID,917.15,VALID,0,VALID,100,VALID,-0.0169808,VALID,20.387,VALID,165,VALID,0.317383,
2008-03-08, 00:59:00,VALID,917.129,VALID,0.2,VALID,100,VALID,-0.0339617,VALID,20.3805,VALID,173,VALID,0,
2008-03-08, 01:00:00,VALID,917.106,VALID,0,VALID,100,VALID,-0.0339617,VALID,20.387,VALID,170,VALID,0.662388,
2008-03-08, 01:01:00,VALID,917.092,VALID,0,VALID,100,VALID,-0.0339617,VALID,20.3905,VALID,185,VALID,0.0745908,
2008-03-08, 01:02:00,VALID,917.078,VALID,0,VALID,100,VALID,-0.0339617,VALID,20.3902,VALID,157,VALID,0.188388,
2008-03-08, 01:03:00,VALID,917.064,VALID,0,VALID,100,VALID,0,VALID,20.3905,VALID,169,VALID,0.789063,
2008-03-08, 01:04:00,VALID,917.065,VALID,0,VALID,100,VALID,-0.0339617,VALID,20.3935,VALID,177,VALID,0.537791,
2008-03-08, 01:05:00,VALID,917.05,VALID,0,VALID,100,VALID,-0.0169808,VALID,20.3902,VALID,165,VALID,0.741655,
2008-03-08, 01:06:00,VALID,917.047,VALID,0,VALID,100,VALID,0,VALID,20.3897,VALID,178,VALID,0.831287,
2008-03-08, 01:07:00,VALID,917.053,VALID,0,VALID,100,VALID,-0.0339617,VALID,20.397,VALID,183,VALID,0.371548,
2008-03-08, 01:08:00,VALID,917.056,VALID,0,VALID,100,VALID,-0.0339617,VALID,20.387,VALID,179,VALID,0,
2008-03-08, 01:09:00,VALID,917.065,VALID,0,VALID,100,VALID,-0.0169808,VALID,20.3802,VALID,176,VALID,0,
2008-03-08, 01:10:00,VALID,917.047,VALID,0,VALID,100,VALID,-0.0339617,VALID,20.377,VALID,181,VALID,0.78234,
2008-03-08, 01:11:00,VALID,917.044,VALID,0,VALID,100,VALID,0,VALID,20.38,VALID,180,VALID,0.496804,
2008-03-08, 01:12:00,VALID,917.048,VALID,0,VALID,100,VALID,-0.0169808,VALID,20.3835,VALID,176,VALID,0.800595,
2008-03-08, 01:13:00,VALID,917.046,VALID,0,VALID,100,VALID,0.0679233,VALID,20.3889,VALID,182,VALID,0.868164,
2008-03-08, 01:14:00,VALID,917.028,VALID,0,VALID,100,VALID,0.0509425,VALID,20.3792,VALID,172,VALID,0.945135,
2008-03-08, 01:15:00,VALID,917.028,VALID,0,VALID,100,VALID,0.0679233,VALID,20.3724,VALID,184,VALID,1.16289,
2008-03-08, 01:16:00,VALID,917.022,VALID,0.2,VALID,100,VALID,0.0339617,VALID,20.3652,VALID,169,VALID,0.643359,
2008-03-08, 01:17:00,VALID,916.999,VALID,0,VALID,100,VALID,0.0679233,VALID,20.3692,VALID,163,VALID,0.980129,
2008-03-08, 01:18:00,VALID,916.99,VALID,0,VALID,100,VALID,0.0679233,VALID,20.3662,VALID,168,VALID,0.394832,
2008-03-08, 01:19:00,VALID,916.974,VALID,0,VALID,100,VALID,0.0339617,VALID,20.3527,VALID,168,VALID,0.0093006,
2008-03-08, 01:20:00,VALID,916.96,VALID,0,VALID,100,VALID,0.0509425,VALID,20.3592,VALID,147,VALID,0,
2008-03-08, 01:21:00,VALID,916.952,VALID,0,VALID,100,VALID,0.0509425,VALID,20.3659,VALID,157,VALID,0.942073,
2008-03-08, 01:22:00,VALID,916.938,VALID,0,VALID,100,VALID,0.0339617,VALID,20.35,VALID,160,VALID,1.02681,
2008-03-08, 01:23:00,VALID,916.932,VALID,0,VALID,100,VALID,0.0339617,VALID,20.3305,VALID,152,VALID,1.06383,
2008-03-08, 01:24:00,VALID,916.922,VALID,0,VALID,100,VALID,0.0169808,VALID,20.3208,VALID,153,VALID,1.3247,
2008-03-08, 01:25:00,VALID,916.91,VALID,0,VALID,100,VALID,0.0679233,VALID,20.3135,VALID,144,VALID,1.20952,
2008-03-08, 01:26:00,VALID,916.909,VALID,0,VALID,100,VALID,0.0509425,VALID,20.3073,VALID,162,VALID,0.975074,
2008-03-08, 01:27:00,VALID,916.907,VALID,0,VALID,100,VALID,0.0849042,VALID,20.3068,VALID,153,VALID,1.01842,
2008-03-08, 01:28:00,VALID,916.884,VALID,0,VALID,100,VALID,-0.0339617,VALID,20.3188,VALID,164,VALID,0.460258,
2008-03-08, 01:29:00,VALID,916.878,VALID,0,VALID,100,VALID,-0.0679233,VALID,20.3123,VALID,156,VALID,0.969151,
2008-03-08, 01:30:00,VALID,916.859,VALID,0,VALID,100,VALID,-0.0339617,VALID,20.2991,VALID,160,VALID,0.920117,
2008-03-08, 01:31:00,VALID,916.858,VALID,0,VALID,100,VALID,-0.0679233,VALID,20.2964,VALID,148,VALID,0.580305,
2008-03-08, 01:32:00,VALID,916.855,VALID,0,VALID,100,VALID,-0.101885,VALID,20.2926,VALID,153,VALID,0.462003,
2008-03-08, 01:33:00,VALID,916.838,VALID,0,VALID,100,VALID,-0.0509425,VALID,20.3028,VALID,140,VALID,0.784539,
2008-03-08, 01:34:00,VALID,916.832,VALID,0,VALID,100,VALID,-0.0169808,VALID,20.2958,VALID,151,VALID,0.439276,
2008-03-08, 01:35:00,VALID,916.828,VALID,0,VALID,100,VALID,-0.0509425,VALID,20.2929,VALID,140,VALID,0,
2008-03-08, 01:36:01,VALID,916.814,VALID,0,VALID,100,VALID,-0.0509425,VALID,20.2864,VALID,139,VALID,0.00342988,
2008-03-08, 01:37:00,VALID,916.81,VALID,0,VALID,100,VALID,-0.0679233,VALID,20.2831,VALID,149,VALID,0.00218023,
2008-03-08, 01:38:00,VALID,916.816,VALID,0,VALID,100,VALID,-0.0849042,VALID,20.2899,VALID,158,VALID,0,
2008-03-08, 01:39:00,VALID,916.836,VALID,0,VALID,100,VALID,-0.0679233,VALID,20.2801,VALID,160,VALID,0,
2008-03-08, 01:40:00,VALID,916.848,VALID,0,VALID,100,VALID,-0.101885,VALID,20.2804,VALID,149,VALID,0.0150799,
2008-03-08, 01:41:00,VALID,916.847,VALID,0,VALID,100,VALID,-0.0509425,VALID,20.2666,VALID,152,VALID,1.01905,
2008-03-08, 01:42:00,VALID,916.858,VALID,0,VALID,100,VALID,-0.0509425,VALID,20.2666,VALID,166,VALID,0.863181,
2008-03-08, 01:43:00,VALID,916.858,VALID,0,VALID,100,VALID,0.0509425,VALID,20.2556,VALID,161,VALID,0.895833,
2008-03-08, 01:44:00,VALID,916.87,VALID,0,VALID,100,VALID,0.0509425,VALID,20.2621,VALID,167,VALID,0.939631,
2008-03-08, 01:45:00,VALID,916.872,VALID,0,VALID,100,VALID,0.0679233,VALID,20.2554,VALID,155,VALID,1.05984,
2008-03-08, 01:46:00,VALID,916.871,VALID,0,VALID,100,VALID,0.0849042,VALID,20.2554,VALID,147,VALID,0.576367,
2008-03-08, 01:47:00,VALID,916.868,VALID,0,VALID,100,VALID,0.0169808,VALID,20.2421,VALID,168,VALID,1.34038,
2008-03-08, 01:48:01,VALID,916.865,VALID,0,VALID,100,VALID,0.0679233,VALID,20.2451,VALID,187,VALID,0.488982,
2008-03-08, 01:49:01,VALID,916.855,VALID,0,VALID,100,VALID,0.0849042,VALID,20.2554,VALID,164,VALID,0.690476,
2008-03-08, 01:50:00,VALID,916.848,VALID,0,VALID,100,VALID,0.0679233,VALID,20.2621,VALID,166,VALID,1.03106,
2008-03-08, 01:51:00,VALID,916.847,VALID,0,VALID,100,VALID,0.0679233,VALID,20.2654,VALID,172,VALID,0.832775,
2008-03-08, 01:52:01,VALID,916.834,VALID,0,VALID,100,VALID,0.0509425,VALID,20.2621,VALID,162,VALID,0.84013,
2008-03-08, 01:53:00,VALID,916.827,VALID,0,VALID,100,VALID,0.0339617,VALID,20.2686,VALID,173,VALID,0.992578,
2008-03-08, 01:54:01,VALID,916.822,VALID,0,VALID,100,VALID,0.0679233,VALID,20.2689,VALID,182,VALID,0.78218,
2008-03-08, 01:55:00,VALID,916.813,VALID,0,VALID,100,VALID,0.0339617,VALID,20.2519,VALID,191,VALID,0.741824,
2008-03-08, 01:56:00,VALID,916.807,VALID,0,VALID,100,VALID,0.0509425,VALID,20.2524,VALID,168,VALID,0.920099,
2008-03-08, 01:57:01,VALID,916.796,VALID,0,VALID,100,VALID,0.0339617,VALID,20.2429,VALID,161,VALID,1.00302,
2008-03-08, 01:58:00,VALID,916.786,VALID,0,VALID,100,VALID,-0.0509425,VALID,20.2304,VALID,161,VALID,0.316016,
2008-03-08, 01:59:01,VALID,916.776,VALID,0,VALID,100,VALID,-0.0509425,VALID,20.2404,VALID,185,VALID,0,
2008-03-08, 02:00:01,VALID,916.764,VALID,0.2,VALID,100,VALID,0,VALID,20.2207,VALID,168,VALID,0,
2008-03-08, 02:01:00,VALID,916.757,VALID,0,VALID,100,VALID,-0.0849042,VALID,20.2245,VALID,163,VALID,0.040968,
2008-03-08, 02:02:00,VALID,916.751,VALID,0,VALID,100,VALID,-0.0679233,VALID,20.218,VALID,159,VALID,0,
2008-03-08, 02:03:00,VALID,916.733,VALID,0,VALID,100,VALID,-0.0509425,VALID,20.2145,VALID,159,VALID,0,
2008-03-08, 02:04:00,VALID,916.736,VALID,0,VALID,100,VALID,-0.0169808,VALID,20.2175,VALID,153,VALID,0.659702,
2008-03-08, 02:05:00,VALID,916.716,VALID,0,VALID,100,VALID,0,VALID,20.1945,VALID,168,VALID,0.571615,
2008-03-08, 02:06:00,VALID,916.705,VALID,0,VALID,100,VALID,0,VALID,20.191,VALID,172,VALID,0.652253,
2008-03-08, 02:07:00,VALID,916.704,VALID,0,VALID,100,VALID,0,VALID,20.1942,VALID,159,VALID,0.696801,
2008-03-08, 02:08:00,VALID,916.69,VALID,0,VALID,100,VALID,-0.0339617,VALID,20.185,VALID,164,VALID,1.05432,
2008-03-08, 02:09:00,VALID,916.7,VALID,0,VALID,100,VALID,-0.0339617,VALID,20.1847,VALID,161,VALID,0.550037,
2008-03-08, 02:10:01,VALID,916.694,VALID,0,VALID,100,VALID,-0.0509425,VALID,20.172,VALID,153,VALID,1.23899,
2008-03-08, 02:11:00,VALID,916.679,VALID,0,VALID,100,VALID,-0.0679233,VALID,20.1858,VALID,168,VALID,0.0577446,
2008-03-08, 02:12:00,VALID,916.672,VALID,0,VALID,100,VALID,0,VALID,20.1718,VALID,169,VALID,0,
2008-03-08, 02:13:00,VALID,916.658,VALID,0,VALID,100,VALID,0,VALID,20.1785,VALID,168,VALID,0.561806,
2008-03-08, 02:14:00,VALID,916.627,VALID,0,VALID,100,VALID,-0.0169808,VALID,20.178,VALID,150,VALID,0.59468,
2008-03-08, 02:15:00,VALID,916.611,VALID,0,VALID,100,VALID,-0.0509425,VALID,20.1755,VALID,179,VALID,0.733842,
2008-03-08, 02:16:00,VALID,916.588,VALID,0,VALID,100,VALID,0,VALID,20.1585,VALID,160,VALID,0.408798,
2008-03-08, 02:17:01,VALID,916.586,VALID,0,VALID,100,VALID,0,VALID,20.1523,VALID,138,VALID,0.751698,
2008-03-08, 02:18:01,VALID,916.575,VALID,0,VALID,100,VALID,-0.0339617,VALID,20.1555,VALID,145,VALID,0,
2008-03-08, 02:19:00,VALID,916.577,VALID,0,VALID,100,VALID,-0.0339617,VALID,20.1496,VALID,131,VALID,0,
2008-03-08, 02:20:00,VALID,916.564,VALID,0,VALID,100,VALID,-0.0169808,VALID,20.1396,VALID,139,VALID,0.0392401,
2008-03-08, 02:21:00,VALID,916.547,VALID,0.2,VALID,100,VALID,0,VALID,20.1261,VALID,146,VALID,0.785764,
2008-03-08, 02:22:00,VALID,916.537,VALID,0,VALID,100,VALID,0,VALID,20.1361,VALID,136,VALID,0.882813,
2008-03-08, 02:23:00,VALID,916.512,VALID,0,VALID,100,VALID,-0.0169808,VALID,20.1228,VALID,135,VALID,0.783288,
2008-03-08, 02:24:01,VALID,916.512,VALID,0,VALID,100,VALID,-0.0509425,VALID,20.1231,VALID,130,VALID,0.488281,
2008-03-08, 02:25:00,VALID,916.492,VALID,0,VALID,100,VALID,-0.0169808,VALID,20.1228,VALID,171,VALID,0.418174,
2008-03-08, 02:26:00,VALID,916.48,VALID,0,VALID,100,VALID,-0.0509425,VALID,20.1134,VALID,170,VALID,0.375,
2008-03-08, 02:27:01,VALID,916.467,VALID,0,VALID,100,VALID,-0.0339617,VALID,20.1069,VALID,140,VALID,0.766352,
2008-03-08, 02:28:00,VALID,916.473,VALID,0,VALID,100,VALID,-0.0509425,VALID,20.1009,VALID,144,VALID,0.609375,
2008-03-08, 02:29:01,VALID,916.475,VALID,0,VALID,100,VALID,-0.0169808,VALID,20.1044,VALID,130,VALID,0.238582,
2008-03-08, 02:30:01,VALID,916.496,VALID,0,VALID,100,VALID,-0.0339617,VALID,20.0909,VALID,116,VALID,0.0912729,
2008-03-08, 02:31:01,VALID,916.499,VALID,0,VALID,100,VALID,-0.0339617,VALID,20.1041,VALID,135,VALID,0.224702,
2008-03-08, 02:32:01,VALID,916.503,VALID,0,VALID,100,VALID,-0.0509425,VALID,20.1009,VALID,163,VALID,0.661644,
2008-03-08, 02:33:01,VALID,916.484,VALID,0,VALID,100,VALID,-0.0509425,VALID,20.0914,VALID,167,VALID,0.884337,
2008-03-08, 02:34:01,VALID,916.476,VALID,0,VALID,100,VALID,-0.0509425,VALID,20.0812,VALID,167,VALID,0.375,
2008-03-08, 02:35:01,VALID,916.464,VALID,0,VALID,100,VALID,-0.0339617,VALID,20.0679,VALID,175,VALID,1.02077,
2008-03-08, 02:36:01,VALID,916.459,VALID,0,VALID,100,VALID,0,VALID,20.0712,VALID,179,VALID,0.242188,
2008-03-08, 02:37:01,VALID,916.441,VALID,0,VALID,100,VALID,-0.0169808,VALID,20.0887,VALID,163,VALID,0.736607,
2008-03-08, 02:38:01,VALID,916.436,VALID,0,VALID,100,VALID,0,VALID,20.0814,VALID,189,VALID,0.869004,
2008-03-08, 02:39:00,VALID,916.437,VALID,0,VALID,100,VALID,-0.0339617,VALID,20.0677,VALID,172,VALID,0.494665,
2008-03-08, 02:40:00,VALID,916.428,VALID,0,VALID,100,VALID,-0.0169808,VALID,20.0649,VALID,175,VALID,0.868304,
2008-03-08, 02:41:00,VALID,916.424,VALID,0.2,VALID,100,VALID,0,VALID,20.0582,VALID,172,VALID,0.0980283,
2008-03-08, 02:42:00,VALID,916.418,VALID,0,VALID,100,VALID,-0.0169808,VALID,20.0614,VALID,172,VALID,0,
2008-03-08, 02:43:00,VALID,916.407,VALID,0,VALID,100,VALID,0,VALID,20.0647,VALID,169,VALID,0.475718,
2008-03-08, 02:44:00,VALID,916.403,VALID,0,VALID,100,VALID,-0.0169808,VALID,20.0585,VALID,164,VALID,0.0466845,
2008-03-08, 02:45:00,VALID,916.396,VALID,0,VALID,100,VALID,-0.0339617,VALID,20.0579,VALID,164,VALID,0,
2008-03-08, 02:46:00,VALID,916.394,VALID,0,VALID,100,VALID,-0.0169808,VALID,20.0647,VALID,164,VALID,0,
2008-03-08, 02:47:00,VALID,916.385,VALID,0,VALID,100,VALID,0,VALID,20.0579,VALID,164,VALID,0,
2008-03-08, 02:48:00,VALID,916.387,VALID,0,VALID,100,VALID,-0.0339617,VALID,20.0547,VALID,166,VALID,0.0515253,
2008-03-08, 02:49:00,VALID,916.381,VALID,0,VALID,100,VALID,-0.0169808,VALID,20.0517,VALID,173,VALID,0,
2008-03-08, 02:50:00,VALID,916.393,VALID,0,VALID,100,VALID,-0.0339617,VALID,20.0517,VALID,186,VALID,0,
2008-03-08, 02:51:00,VALID,916.384,VALID,0,VALID,100,VALID,-0.0509425,VALID,20.0585,VALID,199,VALID,0,
2008-03-08, 02:52:00,VALID,916.387,VALID,0,VALID,100,VALID,-0.0339617,VALID,20.0649,VALID,203,VALID,0,
2008-03-08, 02:53:00,VALID,916.37,VALID,0,VALID,100,VALID,-0.0509425,VALID,20.0614,VALID,198,VALID,0,
2008-03-08, 02:54:00,VALID,916.374,VALID,0,VALID,100,VALID,-0.0339617,VALID,20.0552,VALID,198,VALID,0,
2008-03-08, 02:55:00,VALID,916.379,VALID,0,VALID,100,VALID,-0.0169808,VALID,20.055,VALID,198,VALID,0,
2008-03-08, 02:56:00,VALID,916.379,VALID,0.2,VALID,100,VALID,-0.0339617,VALID,20.0517,VALID,192,VALID,0,
2008-03-08, 02:57:00,VALID,916.388,VALID,0,VALID,100,VALID,-0.0169808,VALID,20.055,VALID,190,VALID,0,
2008-03-08, 02:58:00,VALID,916.367,VALID,0,VALID,100,VALID,-0.0169808,VALID,20.0582,VALID,190,VALID,0,
2008-03-08, 02:59:00,VALID,916.358,VALID,0,VALID,100,VALID,-0.0679233,VALID,20.0487,VALID,190,VALID,0,
2008-03-08, 03:00:00,VALID,916.328,VALID,0,VALID,100,VALID,-0.0169808,VALID,20.0517,VALID,190,VALID,0,
2008-03-08, 03:01:00,VALID,916.324,VALID,0,VALID,100,VALID,0,VALID,20.0385,VALID,190,VALID,0,
2008-03-08, 03:02:00,VALID,916.305,VALID,0,VALID,100,VALID,-0.0169808,VALID,20.0223,VALID,190,VALID,0,
2008-03-08, 03:03:00,VALID,916.284,VALID,0,VALID,100,VALID,-0.0169808,VALID,20.0063,VALID,168,VALID,0,
2008-03-08, 03:04:00,VALID,916.272,VALID,0,VALID,100,VALID,-0.0339617,VALID,19.9833,VALID,105,VALID,0,
2008-03-08, 03:05:00,VALID,916.261,VALID,0,VALID,100,VALID,-0.0169808,VALID,19.9703,VALID,113,VALID,0,
2008-03-08, 03:06:00,VALID,916.249,VALID,0,VALID,100,VALID,0,VALID,19.9609,VALID,132,VALID,0,
2008-03-08, 03:07:00,VALID,916.223,VALID,0,VALID,100,VALID,-0.0169808,VALID,19.9516,VALID,132,VALID,0,
2008-03-08, 03:08:00,VALID,916.202,VALID,0,VALID,100,VALID,-0.0169808,VALID,19.9446,VALID,173,VALID,0,
2008-03-08, 03:09:00,VALID,916.188,VALID,0,VALID,100,VALID,-0.0169808,VALID,19.9514,VALID,182,VALID,0,
2008-03-08, 03:10:00,VALID,916.147,VALID,0,VALID,100,VALID,0,VALID,19.9476,VALID,167,VALID,0,
2008-03-08, 03:11:00,VALID,916.144,VALID,0,VALID,100,VALID,-0.0169808,VALID,19.9546,VALID,159,VALID,0,
2008-03-08, 03:12:00,VALID,916.12,VALID,0,VALID,100,VALID,-0.0509425,VALID,19.9476,VALID,177,VALID,0.0329241,
2008-03-08, 03:13:00,VALID,916.105,VALID,0,VALID,100,VALID,-0.0339617,VALID,19.9511,VALID,178,VALID,0.125182,
2008-03-08, 03:14:00,VALID,916.099,VALID,0,VALID,100,VALID,-0.0509425,VALID,19.9444,VALID,188,VALID,0.288662,
2008-03-08, 03:15:00,VALID,916.103,VALID,0,VALID,100,VALID,0,VALID,19.9411,VALID,195,VALID,0.181836,
2008-03-08, 03:16:00,VALID,916.087,VALID,0,VALID,100,VALID,-0.0169808,VALID,19.9479,VALID,195,VALID,0,
2008-03-08, 03:17:00,VALID,916.096,VALID,0,VALID,100,VALID,0,VALID,19.9576,VALID,195,VALID,0,
2008-03-08, 03:18:00,VALID,916.097,VALID,0,VALID,100,VALID,-0.0339617,VALID,19.9579,VALID,195,VALID,0,
2008-03-08, 03:19:00,VALID,916.083,VALID,0,VALID,100,VALID,-0.0169808,VALID,19.9541,VALID,195,VALID,0,
2008-03-08, 03:20:00,VALID,916.08,VALID,0,VALID,100,VALID,-0.0169808,VALID,19.9611,VALID,195,VALID,0,
2008-03-08, 03:21:00,VALID,916.054,VALID,0,VALID,100,VALID,-0.0509425,VALID,19.9579,VALID,195,VALID,0,
2008-03-08, 03:22:00,VALID,916.051,VALID,0,VALID,100,VALID,-0.0339617,VALID,19.9516,VALID,193,VALID,0,
2008-03-08, 03:23:00,VALID,916.033,VALID,0,VALID,100,VALID,-0.0679233,VALID,19.9257,VALID,191,VALID,0,
2008-03-08, 03:24:00,VALID,916.02,VALID,0,VALID,100,VALID,-0.0509425,VALID,19.9025,VALID,191,VALID,0,
2008-03-08, 03:25:00,VALID,915.998,VALID,0,VALID,100,VALID,-0.0339617,VALID,19.8962,VALID,190,VALID,0,
2008-03-08, 03:26:00,VALID,915.982,VALID,0,VALID,100,VALID,-0.0169808,VALID,19.8862,VALID,189,VALID,0,
2008-03-08, 03:27:00,VALID,915.972,VALID,0,VALID,100,VALID,-0.0169808,VALID,19.8862,VALID,189,VALID,0,
2008-03-08, 03:28:00,VALID,915.959,VALID,0,VALID,100,VALID,-0.0679233,VALID,19.88,VALID,164,VALID,0,
2008-03-08, 03:29:00,VALID,915.95,VALID,0,VALID,100,VALID,-0.0169808,VALID,19.8738,VALID,141,VALID,0,
2008-03-08, 03:30:00,VALID,915.946,VALID,0.2,VALID,100,VALID,0,VALID,19.8508,VALID,140,VALID,0.0640244,
2008-03-08, 03:31:00,VALID,915.921,VALID,0,VALID,100,VALID,0,VALID,19.8473,VALID,137,VALID,0.0615234,
2008-03-08, 03:32:00,VALID,915.917,VALID,0,VALID,100,VALID,0,VALID,19.8343,VALID,129,VALID,0.162246,
2008-03-08, 03:33:00,VALID,915.91,VALID,0,VALID,100,VALID,-0.0169808,VALID,19.8243,VALID,128,VALID,0,
2008-03-08, 03:34:00,VALID,915.909,VALID,0,VALID,100,VALID,0,VALID,19.8246,VALID,130,VALID,0,
2008-03-08, 03:35:00,VALID,915.89,VALID,0,VALID,100,VALID,-0.0339617,VALID,19.8411,VALID,132,VALID,0,
2008-03-08, 03:36:00,VALID,915.867,VALID,0,VALID,100,VALID,-0.0509425,VALID,19.8411,VALID,132,VALID,0,
2008-03-08, 03:37:00,VALID,915.856,VALID,0,VALID,100,VALID,-0.0509425,VALID,19.8411,VALID,132,VALID,0,
2008-03-08, 03:38:00,VALID,915.826,VALID,0,VALID,100,VALID,-0.0679233,VALID,19.8316,VALID,132,VALID,0,
2008-03-08, 03:39:00,VALID,915.822,VALID,0,VALID,100,VALID,-0.0339617,VALID,19.8248,VALID,132,VALID,0,
2008-03-08, 03:40:00,VALID,915.804,VALID,0,VALID,100,VALID,-0.0509425,VALID,19.8184,VALID,132,VALID,0,
2008-03-08, 03:41:00,VALID,915.806,VALID,0,VALID,100,VALID,-0.0509425,VALID,19.8221,VALID,132,VALID,0,
2008-03-08, 03:42:00,VALID,915.808,VALID,0,VALID,100,VALID,-0.0509425,VALID,19.8121,VALID,132,VALID,0,